Tracking 30701 objects as of 14-Jun-2025
HD Live streaming from Space Station
objects crossing your sky now

STARLINK-4738

Track STARLINK-4738 now!
10-day predictions
STARLINK-4738 is classified as:


NORAD ID: 53819
Int'l Code: 2022-114B
Perigee: 545.9 km
Apogee: 547.9 km
Inclination: 53.2 °
Period: 95.4 minutes
Semi major axis: 6917 km
RCS: Unknown
Launch date: September 19, 2022
Source: United States (US)
Launch site: AIR FORCE EASTERN TEST RANGE (AFETR)
Your satellite tracking list
Your tracking list is empty




NASA's NSSDC Master Catalog

Two Line Element Set (TLE):
1 53819U 22114B   25165.41984599 -.00000562  00000-0 -17244-4 0  9991
2 53819  53.2179  68.3011 0001446  93.5886 266.5272 15.08833636152335
Source of the keplerian elements: AFSPC